This demonstration page uses our WeatherBlox Daily Observations layout. Learn more.

Left ArrowRight Arrow

Hourly Observations for April 20, 2020

Temp ( °F °C ) Dew Point ( °F °C ) Humidity (%) Winds ( mph kmh ) Pressure ( in mb ) Visibility ( mi km ) Precip ( " mm )
12:51 am 00:51 Clear 57 13.9 28 -2.2 33 33 SSE 5 7 29.85 1011 10 16.0934 0 0
1:51 am 01:51 Clear 55 12.8 28 -2.2 35 35 SE 5 7 29.85 1011 10 16.0934 0 0
2:51 am 02:51 Clear 55 12.8 28 -2.2 35 35 Calm 29.84 1011 10 16.0934 0 0
3:51 am 03:51 Clear 53 11.7 28 -2.2 38 38 SE 3 6 29.85 1011 10 16.0934 0 0
4:51 am 04:51 Clear 49 9.4 27 -2.8 43 43 ESE 6 9 29.88 1012 10 16.0934 0 0
5:51 am 05:51 Sunny 48 8.9 27 -2.8 44 44 Calm 29.89 1012 10 16.0934 0 0
6:51 am 06:51 Sunny 54 12.2 29 -1.7 38 38 Calm 29.91 1013 10 16.0934 0 0
7:51 am 07:51 Sunny 60 15.6 31 -0.6 33 33 ESE 5 7 29.92 1013 10 16.0934 0 0
8:51 am 08:51 Sunny 66 18.9 32 0 28 28 Calm 29.92 1013 10 16.0934 0 0
9:51 am 09:51 Sunny 72 22.2 33 0.6 24 24 VRB 3 6 29.91 1013 10 16.0934 0 0
10:51 am 10:51 Sunny 74 23.3 32 0 21 21 W 5 7 29.9 1013 10 16.0934 0 0
11:51 am 11:51 Sunny 77 25 31 -0.6 18 18 WSW 9 15 29.89 1012 10 16.0934 0 0
12:51 pm 12:51 Sunny 81 27.2 29 -1.7 15 15 VRB 6 9 29.85 1011 10 16.0934 0 0
1:51 pm 13:51 Sunny 79 26.1 29 -1.7 16 16 Calm 29.83 1010 10 16.0934 0 0
2:51 pm 14:51 Sunny 82 27.8 25 -3.9 12 12 undefined N/A 29.8 1009 10 16.0934 0 0
3:51 pm 15:51 Sunny 83 28.3 23 -5 11 11 NNW 10 17 29.78 1008 10 16.0934 0 0
4:51 pm 16:51 Sunny 83 28.3 25 -3.9 12 12 NW 18 30 29.78 1008 10 16.0934 0 0
5:51 pm 17:51 Sunny 81 27.2 19 -7.2 10 10 WNW 15 24 29.78 1008 10 16.0934 0 0
6:51 pm 18:51 Sunny 76 24.4 21 -6.1 13 13 NW 16 26 29.79 1009 10 16.0934 0 0
7:51 pm 19:51 Clear 72 22.2 22 -5.6 15 15 NNW 9 15 29.81 1009 10 16.0934 0 0
8:51 pm 20:51 Clear 72 22.2 22 -5.6 15 15 NW 14 22 29.82 1010 10 16.0934 0 0
9:51 pm 21:51 Clear 66 18.9 22 -5.6 19 19 WNW 12 19 29.84 1010 10 16.0934 0 0
10:51 pm 22:51 Clear 61 16.1 23 -5 23 23 NW 12 19 29.85 1011 10 16.0934 0 0
11:51 pm 23:51 Clear 66 18.9 22 -5.6 19 19 NW 13 20 29.85 1011 10 16.0934 0 0

Powered by AerisWeather